COSMOS 2251 DEB, 34011

Orbit data source: Space-Track

COSMOS 2251 DEB, 34011 is space debris in LEO originally from a launch on Wed, 16 Jun 1993 UTC launched from the Plesetsk Missile And Space Complex (PKMTR). The debris from Iridium 33, an American commercial communications satellite, has been tracked extensively since its accidental collision with the defunct Russian satellite Cosmos 2251 in 2009. This event, occurring at high speed in low Earth orbit (LEO), generated thousands of pieces of space debris, significantly increasing the risk of further collisions. The Iridium 33 debris cloud has impacted space traffic management and orbital debris mitigation strategies, making it a subject of ongoing study in space situational awareness.

Loading next visibility...
Identifier
34011, 1993-036GW
Orbit
LEO
Country
Flag of CISCIS
Related business
Manufacturer
Unknown
Mission
Spacecraft
Bus & Motor
Unknown
Mass
Unknown
Launch date (UTC)
1993-06-16 (33 years ago)
Launch vehicle
Unknown
Launch site
Plesetsk Missile And Space Complex (PKMTR)
Object type
Payload
Rocket body
Debris
Shape & HBR
Unknown shape, 0.1 m
Radar Cross Section
Small (<0.1 m²)

Expand to show TLE details & history
Last TLE update: 1 day ago

TLE from 1 day ago
0 COSMOS 2251 DEB
1 34011U 93036GW  26256.88152209  .00001519  00000-0  45755-3 0  9991
2 34011  74.0137 178.9936 0038847 201.1474 158.8079 14.42982470918833
Epoch: 2026-09-13T21:09Z
TLE epoch observation values (Epoch: 2026-09-13T21:09:23.508Z)
Latitude
-0.00001°
Longitude
-131.22416°
Altitude
777.111 km
Speed
7.452 km/s
True Right ascension
11h 55m 58s
True Declination
0° 00' 00"
Sunlit
Object was in daylight at epoch
Visualization orbit readout
Latitude
Unknown
Longitude
Unknown
Altitude
Unknown
Speed
Unknown
Apparent Right ascension
Unknown
Apparent Declination
Unknown
Sunlit
N/A
Visualization observer readout
Local Sidereal Time
18:29:43
Azimuth
Unknown
Elevation
Unknown
Doppler factor
Unknown
Orbital elements
Apogee altitude
773.956 km
Perigee altitude
718.603 km
Semi-major axis
7,124.417 km
Eccentricity
0.00388
Inclination
74.0137°
RAAN
178.9936°
Arg. of periapsis
201.1474°
True anomaly
158.9681°
Mean anomaly
158.8079°
Eccentric anomaly
158.88807°
Mean motion
3.60927 °/min
Orbital period
99.74 mins
BSTAR
0.00045755
Loading maneuver chart data...
Computing Atmospheric mass density...
Loading historical data...
Loading historical data...
Loading historical data...
Loading historical data...
Loading historical data...
Loading historical data...
Loading historical data...

Documentation

Showing up to 5 results
|